Theta_e
331 329 328 327 323 323 323 321 320 318 320 317 317 315 314 313 311 307 304 304 304 304 303 302 302 301 301 302 302 301 301 301 302 304 306 307 307 307 309 312 315 319 322 325 327 329 331 332 328 326 324 325 325 325 323 323 323 322 322 321 321 321 320 320 319 319 319 320 320 320 320 320 321 321 321 322 323 323 324 325 326 326 327 326 327
329 326 327 324 322 319 319 319 321 320 318 318 315 317 315 312 310 307 304 304 305 302 302 303 301 301 301 302 302 300 300 300 301 301 303 305 306 307 305 307 312 316 318 320 324 326 328 331 333 332 331 327 325 323 323 323 323 324 323 322 321 321 320 320 318 317 318 318 319 320 319 320 320 320 321 321 322 321 322 322 324 325 325 324 324
326 324 325 324 321 321 322 321 322 321 320 317 314 317 315 315 313 309 307 304 303 301 302 303 302 301 299 301 301 300 300 300 300 300 301 303 305 306 307 304 306 309 314 317 320 323 326 328 330 332 333 332 333 324 324 324 323 323 325 323 322 322 320 320 319 318 317 317 318 319 319 319 319 319 320 320 320 320 320 320 321 322 322 321 321
325 322 321 321 320 319 320 320 322 319 319 318 315 314 313 310 309 307 305 306 305 303 301 304 303 300 299 300 299 300 300 299 300 300 301 302 303 305 305 305 303 307 309 312 317 319 322 324 327 329 330 331 332 331 324 324 323 322 323 323 323 322 322 321 320 318 317 317 317 318 319 319 319 318 319 320 319 320 320 320 320 320 321 321 319
322 322 317 319 318 318 318 318 319 317 316 315 313 311 310 309 307 306 306 306 308 308 304 303 305 303 299 299 299 300 299 298 299 299 301 301 302 302 304 305 306 305 305 308 311 315 319 321 323 326 328 329 330 331 329 324 324 323 324 323 323 323 322 321 320 318 317 317 317 317 318 319 319 318 318 318 318 319 319 319 319 319 320 319 318
318 317 318 317 316 316 316 315 314 314 314 315 315 314 313 312 309 310 308 308 309 306 306 308 305 301 301 299 298 299 298 298 298 299 299 300 300 301 303 304 305 306 307 305 307 310 315 318 320 322 324 326 328 329 330 327 325 324 324 324 323 323 323 322 322 321 319 318 317 318 318 318 318 318 318 318 317 318 318 318 318 318 318 318 318
316 316 315 316 315 313 313 311 310 310 311 311 312 311 311 311 308 312 308 307 305 304 303 304 302 302 301 298 298 298 297 298 298 298 298 299 298 300 301 303 304 304 305 306 304 305 309 314 317 320 322 324 325 326 327 329 326 324 323 324 323 323 323 323 322 321 321 319 318 317 318 318 318 318 318 317 317 317 317 317 318 318 317 317 318
316 316 315 315 314 312 310 310 310 310 308 309 310 308 307 306 302 304 308 309 307 308 303 302 301 300 299 298 297 297 297 297 298 298 298 297 298 299 300 301 303 304 303 306 306 305 305 309 313 317 318 318 320 322 325 327 328 327 326 325 324 323 323 324 324 324 323 321 318 317 318 318 318 318 318 318 317 317 317 317 317 317 317 317 317
313 313 313 312 312 310 310 310 310 309 309 309 308 307 307 306 301 300 302 304 304 303 304 302 300 299 298 298 298 297 297 298 297 297 297 297 298 298 298 300 301 301 304 304 304 305 303 305 309 312 311 312 316 320 322 325 326 328 326 326 325 324 323 323 323 323 322 321 320 318 317 318 318 318 318 318 317 317 317 316 316 316 317 316 316
309 310 310 309 309 308 308 309 309 309 309 308 306 306 306 306 305 300 300 301 301 301 301 300 298 298 298 298 298 296 297 297 297 296 297 297 297 297 298 298 299 301 301 302 303 303 304 304 303 305 305 308 313 317 319 321 323 327 329 328 326 325 323 322 323 322 322 322 321 319 318 318 318 318 318 318 317 317 316 316 317 316 316 316 316
305 306 307 307 306 306 306 307 308 308 307 305 304 304 304 304 307 305 299 299 301 299 299 297 297 297 297 297 297 297 297 296 296 296 296 296 296 297 297 298 298 298 299 299 301 301 302 303 304 305 307 304 309 312 315 318 319 319 322 326 328 326 324 322 322 321 321 321 321 320 319 319 319 318 318 318 317 317 316 316 317 317 316 317 316
301 302 303 303 304 305 305 307 307 306 305 304 304 304 304 304 302 302 302 300 296 296 296 296 296 296 297 297 297 296 296 296 295 295 295 295 296 295 296 296 296 297 297 298 299 299 300 301 302 303 304 304 304 307 310 313 312 313 318 322 325 326 325 324 322 322 321 320 320 320 319 319 319 319 318 318 317 317 317 316 317 316 316 317 317
297 298 299 299 300 300 301 302 304 303 302 301 301 299 299 300 299 299 299 300 300 296 295 295 297 300 297 298 298 297 295 295 294 295 296 296 295 294 294 295 296 296 296 296 297 298 298 300 301 301 302 303 303 302 304 307 306 310 316 319 322 325 324 323 323 321 322 321 321 320 320 319 319 318 319 318 318 317 317 316 316 317 317 316 316
295 296 296 297 297 297 297 297 298 299 299 299 298 297 297 297 298 298 298 296 298 295 295 297 299 294 294 295 297 298 297 293 295 295 296 295 294 294 294 295 295 295 295 295 296 296 297 298 299 300 301 301 302 303 304 304 305 307 312 316 319 321 323 325 325 322 321 321 321 321 321 319 319 319 319 319 318 317 317 318 317 317 317 317 317
293 294 294 294 295 295 295 296 296 297 296 296 296 296 296 295 296 295 296 298 295 295 295 295 295 294 293 293 294 294 299 296 294 294 296 293 293 294 295 295 294 294 294 295 295 296 296 296 297 298 298 299 300 301 301 300 301 300 305 309 311 315 318 320 322 324 326 323 321 320 320 321 320 319 319 320 319 318 318 317 317 318 318 318 317
291 292 292 293 293 293 294 294 294 295 295 294 294 294 294 294 295 295 295 294 295 296 294 294 293 293 294 292 292 289 293 294 290 295 293 293 293 295 294 294 294 294 294 295 296 295 295 295 295 296 296 297 297 298 299 300 299 298 300 300 302 308 313 316 319 321 323 323 321 321 320 321 320 319 320 320 320 319 318 317 318 318 318 318 317
289 289 290 290 291 292 292 292 293 293 294 293 293 293 293 293 293 294 293 292 293 293 295 295 294 294 291 291 292 293 292 290 290 295 292 295 296 295 294 294 295 294 294 295 295 294 294 294 295 295 295 295 295 296 297 298 298 298 298 297 299 303 305 311 313 316 319 321 322 322 322 322 323 323 321 322 321 320 319 318 318 318 318 318 317
288 288 289 289 289 289 290 290 290 291 291 292 292 292 292 292 292 293 293 293 292 293 292 294 293 293 293 292 291 289 287 289 290 290 294 295 292 292 294 294 293 293 293 293 294 295 293 294 295 295 295 295 295 295 295 296 295 297 297 299 300 303 304 307 310 312 313 315 319 320 321 322 321 322 324 324 322 321 320 319 319 319 319 318 318
288 288 288 288 288 288 288 289 289 289 289 290 289 290 291 291 292 292 292 292 293 292 291 291 294 294 293 293 292 291 290 288 287 288 287 292 293 294 294 295 293 292 293 294 294 294 294 294 294 295 295 295 294 294 294 295 294 295 297 299 303 305 305 306 307 308 310 312 313 315 318 319 319 320 321 324 322 321 320 319 319 318 318 318 319
287 287 288 288 288 287 288 288 288 288 288 288 288 289 290 290 291 291 291 291 291 291 291 291 289 291 291 291 291 292 291 290 290 287 286 284 288 293 292 294 293 293 293 294 294 294 294 294 294 294 294 294 294 294 294 295 294 295 294 297 302 305 306 306 306 306 308 309 311 313 313 315 316 319 321 323 323 321 320 320 319 318 318 319 319
287 287 287 287 287 287 287 287 287 287 287 287 288 288 288 288 288 289 289 289 289 290 290 289 290 289 290 290 291 290 291 290 288 288 286 286 287 289 289 291 292 293 293 294 293 293 293 293 294 293 293 294 294 294 294 294 294 294 294 297 301 306 307 307 307 306 307 307 309 310 313 314 314 316 317 319 322 322 322 321 320 319 317 318 319
286 287 287 287 287 287 286 286 286 286 286 286 287 287 287 287 287 288 288 287 288 288 288 288 289 289 289 289 289 289 290 290 290 289 288 288 285 285 286 286 286 290 292 293 294 294 294 294 293 294 293 294 294 293 293 293 293 294 294 295 298 302 304 305 305 306 306 307 308 308 310 311 313 315 315 317 320 323 323 322 320 319 317 318 319
286 286 286 286 286 286 286 286 286 286 286 286 286 286 286 286 287 287 287 287 286 287 287 287 287 287 288 288 287 287 287 286 287 288 287 286 286 287 287 287 287 287 290 291 292 293 293 293 293 293 294 294 294 294 293 293 292 292 293 294 296 298 299 302 303 303 304 305 306 307 307 308 310 313 314 315 316 318 323 322 322 320 318 318 318
285 285 285 286 286 285 286 286 285 285 285 285 285 286 286 286 286 285 286 286 286 286 286 286 287 287 287 288 287 288 288 287 288 287 287 286 286 285 285 287 287 288 290 290 291 291 292 292 293 294 294 294 293 294 293 293 293 292 292 292 294 297 300 302 304 304 305 305 305 305 306 307 307 308 311 314 314 314 316 319 321 321 320 319 319
284 284 285 285 285 284 284 284 284 285 285 285 285 285 285 285 285 285 285 285 285 285 285 285 286 285 286 287 287 287 287 288 288 287 287 287 286 284 286 288 285 285 288 289 287 289 291 292 292 293 293 293 294 293 294 293 293 292 292 292 293 294 296 297 298 300 301 302 304 305 306 307 307 307 309 311 313 314 313 314 318 321 321 321 320
284 284 284 285 284 284 284 284 284 284 284 284 284 284 284 284 284 284 284 285 284 285 284 285 285 285 286 285 286 286 286 287 287 287 286 286 285 285 284 285 286 285 287 287 288 287 289 289 290 291 291 292 292 293 293 293 293 292 291 292 293 293 294 296 298 299 300 301 302 302 303 304 305 306 307 309 311 313 313 313 315 318 321 321 322
284 284 284 284 284 284 284 283 283 283 283 283 283 283 283 283 283 283 283 284 283 284 283 284 284 284 285 285 285 285 285 286 287 287 287 287 286 285 284 282 283 285 284 286 286 287 287 290 290 291 292 292 292 292 293 293 292 291 290 292 293 292 292 295 298 299 300 301 302 302 302 302 304 305 306 306 307 308 311 312 313 316 319 321 320
284 283 283 283 283 283 283 282 282 282 282 282 282 282 282 282 282 282 281 283 282 282 283 283 283 283 283 284 284 283 285 285 286 286 286 287 286 286 285 284 281 279 283 283 284 284 290 289 289 289 290 291 292 292 291 290 292 291 289 292 292 293 293 294 297 299 299 300 300 301 302 302 303 304 304 304 304 305 306 307 308 310 312 315 318
283 283 282 282 282 282 282 282 282 282 282 281 281 281 281 281 281 281 281 282 281 281 281 281 282 282 282 283 282 283 283 284 284 285 285 286 286 286 286 284 284 281 280 280 282 283 286 288 285 289 289 289 290 292 290 290 291 290 293 292 293 293 293 294 297 299 299 300 300 301 301 302 302 303 304 304 304 304 304 306 307 308 309 310 312
282 282 282 281 281 281 281 281 281 281 281 281 281 281 281 280 280 280 281 281 281 281 281 281 281 281 281 281 282 282 282 283 283 283 284 284 284 285 285 285 285 282 281 280 280 284 284 287 287 286 289 288 289 290 291 291 291 291 292 292 293 293 293 294 296 297 298 299 300 300 301 301 301 302 303 304 305 305 304 304 305 307 308 309 311
281 281 280 280 280 280 280 280 280 279 280 279 280 279 280 279 279 279 280 280 279 279 280 280 280 281 280 280 281 281 281 281 282 282 283 283 283 284 284 285 285 284 282 281 279 283 286 283 286 290 288 288 287 288 289 291 291 291 291 292 292 291 292 292 293 294 296 297 297 298 298 299 300 300 301 302 304 305 306 305 304 305 307 308 309
280 280 279 279 279 279 279 279 278 278 278 278 278 278 278 278 278 278 279 279 278 278 279 280 280 280 279 279 280 280 280 281 281 281 281 282 282 282 283 283 283 284 283 282 280 280 285 284 285 286 288 287 288 287 287 288 290 289 291 291 291 289 290 291 291 292 293 295 296 297 298 298 299 299 300 300 302 303 304 305 305 305 305 308 309
279 279 278 278 278 278 278 278 277 277 277 277 278 277 277 277 277 278 278 278 277 277 278 278 279 279 279 278 279 279 280 279 280 280 280 281 281 281 282 282 282 283 283 281 280 280 283 286 285 285 287 287 286 288 287 287 288 289 289 291 291 290 290 290 290 290 292 293 294 296 296 297 299 299 300 300 300 302 302 303 304 305 305 306 308
278 278 277 277 277 277 276 276 276 276 276 276 276 276 276 276 276 277 276 276 276 276 277 276 277 278 278 277 277 278 279 279 279 279 279 279 280 280 280 280 280 281 283 281 280 280 279 283 283 285 285 287 284 287 286 286 286 287 287 289 290 290 289 289 289 290 291 292 293 294 295 297 298 299 300 300 300 301 302 303 303 303 304 306 307
276 276 276 276 275 275 275 275 275 275 275 275 275 275 275 275 274 275 275 275 275 275 275 275 276 276 276 276 276 277 278 277 278 278 279 279 279 279 279 280 279 280 281 281 280 278 279 279 283 282 283 284 284 284 286 287 287 287 286 287 287 289 289 290 289 290 290 292 293 295 296 296 297 297 298 298 299 299 300 301 301 302 303 305 306
274 275 274 274 274 274 273 274 274 274 274 274 273 274 273 273 273 273 274 274 274 274 274 275 275 275 275 275 275 276 276 276 276 276 277 278 278 278 278 279 279 279 280 280 280 279 279 278 280 281 282 282 283 285 285 286 286 286 286 286 287 287 288 289 289 289 290 291 293 294 295 296 296 297 297 297 298 299 299 300 300 301 302 303 304
273 273 273 273 273 273 272 273 273 272 272 272 272 272 272 273 273 272 273 273 273 274 274 274 275 274 274 274 274 275 275 274 274 275 276 275 276 276 276 277 278 278 279 279 279 280 279 278 278 281 282 282 283 283 284 283 284 285 286 286 286 286 287 288 288 289 289 291 291 292 293 294 295 295 296 296 297 298 298 299 299 300 300 301 302
272 272 272 272 272 272 272 272 272 271 271 271 271 271 271 271 272 272 273 273 273 273 274 274 274 274 273 273 274 274 274 273 273 274 274 274 275 275 275 276 277 277 277 278 278 278 278 278 278 278 280 280 281 281 283 283 282 282 283 284 285 286 286 286 287 287 288 288 289 289 290 291 292 293 294 295 296 297 297 298 299 299 299 298 299
271 270 271 271 271 271 271 271 270 270 270 270 270 270 270 271 272 272 273 273 273 273 273 273 273 273 273 273 273 273 273 273 273 273 274 274 274 275 276 276 277 277 277 277 278 278 278 278 278 279 279 280 281 279 282 284 283 283 281 282 282 284 285 285 285 287 288 288 289 290 290 290 290 290 291 293 294 295 296 297 297 298 298 297 297
269 269 269 269 269 270 270 269 269 269 269 269 269 270 270 271 272 272 272 272 272 272 272 273 273 273 273 273 273 273 273 274 274 274 275 274 275 275 276 276 276 276 275 276 277 277 277 277 277 277 278 278 279 281 282 282 281 281 282 281 280 281 283 284 285 285 286 287 286 287 289 290 290 291 292 293 293 294 294 294 295 296 295 296 297
268 268 268 268 268 268 268 268 268 268 268 268 268 269 271 272 273 272 272 272 272 272 272 272 273 273 273 273 273 273 274 275 276 276 276 276 274 273 274 275 275 275 275 275 275 275 275 275 275 277 277 277 278 279 279 279 279 279 281 282 281 282 282 282 284 286 286 285 286 287 287 288 287 288 288 289 290 291 292 292 293 293 293 295 297
267 267 267 267 267 267 266 267 267 267 267 267 268 271 273 273 273 273 272 272 272 272 272 271 272 272 272 272 272 273 274 274 274 274 275 275 276 275 274 274 273 273 273 273 273 274 274 274 274 275 275 275 277 278 278 279 280 281 280 280 279 281 282 281 283 284 286 286 285 284 286 288 287 287 288 287 289 289 289 290 290 292 292 294 295
266 266 266 266 266 266 266 266 265 266 266 266 269 272 273 274 273 272 272 272 272 272 271 271 270 271 271 271 271 272 272 272 271 273 274 275 275 275 276 276 276 274 272 272 272 273 272 272 273 273 274 274 276 277 278 279 280 280 280 280 280 280 279 278 278 282 286 285 284 284 284 287 287 285 286 287 288 288 289 289 290 290 291 293 294
265 265 265 265 265 265 265 265 265 265 265 267 270 272 273 274 275 273 273 272 271 271 271 270 270 270 270 270 270 270 270 270 271 271 272 273 274 275 275 275 276 277 277 274 273 272 273 272 273 273 274 273 274 275 276 277 277 278 279 279 279 279 278 278 278 278 283 287 284 283 282 286 287 285 285 287 288 289 289 289 290 291 292 292 293
264 264 264 264 264 264 264 264 264 264 264 266 269 271 273 274 275 274 272 272 271 271 270 270 269 269 269 268 268 269 269 271 271 270 270 270 272 273 274 274 274 275 275 276 277 275 274 273 272 272 273 273 273 275 277 276 278 276 276 276 276 277 277 276 277 279 281 285 283 282 281 283 286 285 284 287 288 288 288 290 291 291 292 292 293
263 263 263 263 263 263 263 263 263 263 263 265 269 271 273 273 274 274 272 271 271 270 269 269 268 268 268 268 268 268 269 269 270 270 270 270 270 270 271 271 271 273 275 275 275 276 275 273 273 271 273 274 273 274 276 277 276 275 275 275 277 277 276 276 278 279 280 282 280 280 279 281 284 284 283 285 287 287 287 288 290 291 292 293 293
262 262 262 261 261 262 262 262 262 262 262 267 270 271 272 273 273 273 271 270 269 268 268 268 268 268 268 268 268 268 268 269 269 270 270 270 270 270 270 271 271 272 272 273 273 273 274 274 274 274 275 276 276 276 277 277 277 277 277 277 278 278 279 280 280 280 280 282 282 281 277 280 283 282 283 284 286 286 287 288 290 291 292 292 293
262 262 262 261 261 260 261 261 261 261 262 266 269 270 271 272 273 270 269 268 268 268 268 268 268 268 268 268 268 268 268 269 271 273 273 272 271 270 270 271 271 272 273 275 277 277 276 275 275 275 275 276 278 277 279 279 279 279 279 279 279 279 278 276 276 278 279 282 283 281 278 279 282 281 281 284 285 284 286 286 288 290 291 292 292
261 260 260 260 260 260 260 260 260 260 261 264 268 270 271 272 271 268 268 268 267 267 267 268 268 269 269 269 269 269 269 269 271 274 275 275 272 272 272 272 272 273 273 274 276 278 278 278 279 279 280 280 280 281 281 281 279 279 277 275 274 276 275 274 275 276 277 281 282 282 280 279 281 282 282 283 284 284 284 285 287 288 290 292 292
259 259 260 259 259 259 259 259 259 259 260 263 267 269 270 271 270 268 267 267 267 267 267 268 269 269 269 271 271 270 270 270 273 275 276 275 273 273 272 271 271 271 272 274 274 275 277 278 279 279 279 280 280 280 280 280 280 279 276 273 274 275 272 272 271 273 275 277 279 282 280 279 282 282 281 283 284 284 284 285 286 286 288 290 292
259 259 259 258 258 259 259 259 261 261 260 262 265 267 269 270 269 268 268 267 267 267 267 267 269 269 269 271 272 272 272 273 276 277 277 275 273 273 272 272 271 271 272 274 274 273 273 273 274 274 275 276 276 276 276 279 279 279 277 275 275 273 271 271 272 272 272 274 278 281 277 278 280 281 281 280 279 282 285 285 285 286 286 286 287
Wind_Speed
5 5 3 3 4 4 3 2 5 4 3 3 3 2 1 1 3 4 2 2 1 2 1 2 1 2 2 2 2 2 2 2 2 3 2 2 2 4 7 9 10 10 10 10 11 11 9 9 8 9 6 4 8 7 4 4 3 3 3 4 4 3 1 4 4 4 6 8 7 7 5 4 5 5 5 6 4 2 3 3 4 3 4 3 3
4 3 5 4 4 6 5 4 4 5 6 6 4 4 3 2 3 3 2 1 1 1 1 1 2 2 2 1 1 1 1 1 2 2 2 2 2 3 4 7 8 10 11 11 11 11 11 9 11 9 10 8 9 5 3 7 6 8 8 6 3 4 3 5 4 1 2 5 6 6 5 5 5 5 5 5 5 4 4 3 3 4 3 5 7
3 2 4 6 3 4 4 3 3 3 4 5 5 4 3 2 2 3 2 2 1 1 1 1 1 1 1 1 1 1 1 0 1 1 1 2 2 2 3 5 6 8 10 11 11 11 12 12 11 11 12 12 15 6 7 6 6 6 10 7 5 6 3 4 4 3 2 3 5 6 5 5 4 4 4 5 5 4 4 5 5 3 5 4 6
3 4 1 0 4 5 3 3 2 2 2 3 4 4 4 4 4 4 3 2 2 1 1 1 1 1 1 1 1 1 1 1 1 1 1 1 1 1 2 2 4 5 7 9 10 11 12 13 13 12 12 12 13 13 7 7 7 6 8 8 7 6 7 4 4 5 2 1 4 5 5 6 5 3 4 5 4 4 4 5 5 6 6 6 6
5 5 5 4 5 5 3 2 3 3 3 4 5 4 5 5 3 3 3 2 1 1 1 0 1 1 1 1 1 2 1 2 2 2 2 1 1 1 1 2 2 3 4 6 8 9 11 11 12 13 13 12 13 13 12 9 7 6 8 8 8 7 7 4 9 3 4 4 3 4 5 7 6 5 4 4 5 5 5 4 5 5 7 6 6
6 6 5 5 6 6 5 4 4 4 4 3 3 2 3 2 2 1 1 1 1 1 1 2 1 1 1 1 1 2 1 2 2 2 2 2 1 1 1 1 1 2 2 3 5 8 9 10 11 12 12 13 12 13 13 12 9 8 9 10 9 7 8 8 8 7 5 3 3 5 6 6 6 6 6 5 5 6 6 5 3 4 7 7 7
6 7 7 7 7 6 4 4 4 5 5 4 4 3 3 4 3 3 2 2 2 2 2 2 3 3 3 2 2 2 2 3 2 3 2 2 1 2 1 1 1 1 2 1 2 4 6 9 10 11 11 12 13 13 12 14 12 11 10 10 11 8 8 9 8 8 10 8 5 3 7 6 7 8 7 7 6 7 7 8 8 7 7 8 8
7 6 7 7 6 6 3 4 5 5 5 4 5 4 4 5 5 4 5 4 5 4 2 3 3 4 3 3 3 3 3 3 3 3 2 2 2 2 1 2 2 1 2 1 2 2 5 7 9 10 10 11 12 13 13 13 13 13 13 12 11 11 8 10 10 10 11 9 6 6 7 8 9 9 8 7 7 8 8 9 9 9 8 8 9
9 8 8 7 5 6 6 6 6 6 5 4 4 3 4 5 5 5 4 0 2 3 2 2 3 4 4 4 3 3 4 3 3 3 2 3 2 2 2 2 2 2 2 1 1 1 2 5 7 8 9 9 11 12 12 13 12 13 14 14 13 13 10 9 11 11 9 10 8 7 6 8 9 9 9 9 9 9 9 9 10 10 9 10 9
9 8 6 7 6 7 6 6 5 6 5 4 4 3 3 3 3 2 1 2 2 1 2 1 1 2 3 4 5 3 4 4 3 3 3 4 2 3 3 2 2 2 2 2 2 2 2 3 5 5 5 7 9 10 11 12 13 13 13 13 14 14 13 9 11 11 11 10 10 6 7 8 9 9 10 11 11 10 10 10 9 10 10 10 10
9 8 8 7 8 8 7 7 6 5 4 4 4 5 5 4 3 2 1 1 2 1 2 2 2 2 3 4 3 5 4 3 3 3 3 3 3 3 2 3 2 2 3 2 2 3 2 3 3 3 3 5 8 9 10 11 12 12 14 14 14 14 14 13 12 12 12 11 10 9 9 12 11 10 11 11 11 10 10 10 10 11 10 10 11
11 9 9 8 8 7 7 7 6 6 7 7 6 5 4 5 5 4 4 2 2 2 1 2 2 3 3 3 3 4 5 3 3 2 3 3 3 2 3 2 2 2 2 2 2 3 3 2 2 3 3 4 6 8 9 10 9 11 13 14 14 14 16 15 14 13 14 13 13 13 14 10 13 13 11 12 12 10 11 11 11 12 11 11 11
11 11 10 9 8 8 8 8 6 6 5 5 4 6 6 5 3 3 4 4 2 2 2 2 3 3 1 3 4 2 5 2 2 2 2 3 2 2 2 3 2 2 2 2 3 2 3 3 3 3 3 3 4 4 7 8 8 10 12 13 14 14 16 16 16 16 14 14 14 15 16 12 14 14 13 15 15 10 10 12 13 13 12 12 12
9 8 9 9 8 8 9 9 8 8 8 9 10 8 7 7 5 4 2 3 4 4 4 4 2 4 6 5 2 3 1 1 1 1 3 2 2 1 1 2 2 2 2 2 2 2 3 3 3 3 3 3 4 4 4 5 5 8 11 13 14 15 15 16 17 18 17 16 16 16 18 15 15 15 15 15 14 11 10 12 13 14 14 13 13
11 11 10 10 10 10 9 8 10 8 9 9 9 10 9 9 8 7 6 3 1 2 5 6 5 3 2 3 3 6 1 1 1 3 4 1 1 1 1 2 2 2 2 2 3 3 3 2 4 3 4 4 4 4 4 6 7 7 10 12 12 14 16 17 18 19 18 18 18 17 17 19 18 16 16 17 16 11 14 13 13 14 15 15 14
11 11 10 11 11 10 9 9 9 9 8 9 10 10 9 9 8 8 5 6 6 4 4 5 4 7 5 4 4 2 7 4 5 7 1 3 1 1 1 2 2 2 2 3 3 3 3 2 4 4 4 4 4 4 4 5 7 7 9 11 12 14 16 17 18 18 19 19 19 18 17 18 19 17 18 19 20 16 18 15 15 14 15 16 16
11 12 11 10 10 10 9 9 9 9 8 8 8 7 7 7 7 7 8 5 6 4 4 5 6 4 4 5 3 2 2 5 11 7 3 4 5 4 3 2 2 2 3 3 3 3 3 4 4 4 5 5 5 5 5 6 5 6 8 10 11 12 13 16 18 20 20 21 21 21 21 20 21 21 20 24 19 19 18 17 16 16 15 17 17
11 11 11 10 10 10 10 10 9 9 8 7 7 7 9 9 8 6 7 7 3 5 6 7 6 5 4 2 1 3 8 7 6 7 5 3 4 2 3 3 3 4 3 4 5 4 2 4 4 5 5 5 5 5 5 6 6 5 5 6 12 13 14 15 18 19 20 21 22 22 21 22 23 23 21 18 20 18 18 17 16 16 16 16 18
10 10 10 10 10 10 9 9 9 9 8 8 9 8 7 8 7 8 6 6 6 6 7 6 3 4 6 4 3 0 1 4 5 7 12 3 1 5 6 5 4 4 4 4 5 4 4 3 5 5 5 5 5 5 5 6 7 8 11 13 15 15 16 16 17 18 19 20 21 21 22 22 23 23 25 21 16 20 18 18 17 16 16 16 18
9 10 10 9 9 9 9 9 9 9 8 8 8 7 7 7 8 7 7 7 7 6 6 6 6 5 6 5 5 2 2 2 3 3 5 10 13 1 2 3 5 7 7 7 5 5 6 4 5 5 5 5 5 5 6 6 6 6 7 13 16 17 17 17 17 17 18 19 20 21 22 23 23 24 24 23 17 21 19 19 19 17 17 17 19
9 9 9 9 8 9 9 9 9 9 8 8 8 8 9 9 9 9 9 8 7 6 6 6 6 5 6 6 5 5 4 1 2 2 2 8 11 10 12 9 6 3 4 3 5 4 5 6 5 6 6 6 5 5 6 6 6 6 8 13 16 17 17 18 18 17 17 18 19 20 21 22 22 23 25 25 21 21 22 21 20 19 15 16 19
9 10 10 10 9 9 8 9 8 8 8 8 8 9 8 8 7 7 8 9 6 7 7 6 5 5 5 4 5 5 3 3 2 5 2 4 7 12 10 12 15 7 6 8 7 6 5 5 5 5 5 6 5 5 5 6 6 5 8 13 15 17 18 18 18 18 19 19 19 19 21 21 22 23 23 25 24 21 24 23 22 19 17 19 20
7 8 9 9 8 9 8 8 8 7 8 8 8 8 7 7 6 7 9 9 7 7 7 6 5 6 7 5 5 4 4 5 6 5 4 5 7 8 10 8 9 14 7 7 6 7 6 5 6 6 6 6 5 5 5 6 8 9 12 13 15 15 17 18 18 19 19 20 20 20 20 20 21 21 22 23 24 24 22 24 25 20 20 21 20
7 7 8 8 8 8 8 8 8 8 8 7 7 7 6 6 6 6 6 7 7 7 7 8 8 6 6 5 5 4 3 3 5 5 4 5 5 9 9 11 9 5 5 9 8 7 4 5 6 6 6 5 6 5 6 6 7 12 11 12 14 16 17 18 19 19 19 19 20 20 21 21 21 21 21 21 22 23 24 23 24 25 22 21 20
8 8 8 9 7 8 9 8 8 8 8 8 8 8 7 7 7 8 7 8 7 6 6 7 6 6 6 4 4 4 4 3 3 4 4 4 4 7 8 7 10 12 6 4 5 4 7 6 4 5 5 5 5 5 5 5 6 8 10 9 12 13 15 17 18 19 20 21 21 21 20 21 21 21 22 22 22 23 24 24 24 22 23 25 22
6 7 5 6 6 6 6 6 6 6 7 7 7 6 6 6 6 7 7 6 6 7 6 6 5 5 5 6 6 5 4 4 4 3 4 5 5 6 9 7 8 11 8 4 2 4 2 3 5 4 4 5 5 5 5 6 6 10 11 8 10 11 13 15 17 18 19 20 20 21 20 20 21 21 22 23 23 22 23 23 23 25 25 26 26
5 4 5 5 5 5 6 6 6 6 6 5 5 5 5 5 5 5 5 5 5 5 5 5 6 7 6 5 6 5 5 5 5 5 4 4 5 7 6 10 9 6 10 8 8 6 9 3 6 5 6 5 4 4 5 4 6 11 10 7 7 10 11 15 16 17 18 19 20 20 21 20 21 22 22 22 23 23 23 23 23 23 25 26 26
4 4 5 4 5 5 5 5 5 5 5 5 5 5 5 5 4 4 5 3 4 4 4 4 4 6 5 5 5 6 5 5 5 5 5 5 5 5 5 6 8 12 9 11 8 8 4 5 3 6 6 5 4 4 5 5 5 9 9 5 5 7 9 13 16 17 17 18 19 19 20 21 21 21 21 22 22 21 21 21 21 20 19 20 19
4 3 4 4 4 5 5 5 5 5 5 5 4 4 4 4 4 5 6 5 5 6 6 6 6 6 5 6 6 6 6 6 6 6 6 5 5 5 5 6 7 9 9 9 12 10 4 1 7 2 5 5 4 3 3 3 5 7 5 5 6 7 9 14 16 18 18 18 18 19 20 20 21 21 21 21 22 23 23 23 22 22 21 22 23
4 3 4 5 5 5 4 4 4 4 5 5 5 5 5 5 5 4 5 4 5 4 5 5 6 6 6 6 6 7 6 7 7 7 7 7 7 6 6 6 6 9 9 11 14 8 12 10 6 7 1 4 3 4 4 7 10 11 7 8 8 8 11 14 17 18 19 19 20 20 20 20 21 21 21 22 22 23 24 24 24 23 23 23 24
5 5 5 5 5 5 4 5 5 5 5 5 5 5 6 5 6 5 6 6 6 7 6 5 6 6 7 7 6 6 7 8 8 7 7 7 7 7 7 6 7 8 10 11 14 10 5 13 8 4 7 9 9 10 7 6 9 11 8 7 8 12 14 11 15 17 18 19 19 19 20 21 22 22 22 22 22 23 23 24 24 25 24 25 25
5 5 5 5 6 6 5 5 5 5 5 5 5 5 5 5 5 5 6 6 6 6 7 5 5 6 7 8 7 7 8 8 8 7 7 7 7 8 8 8 8 8 9 11 13 17 8 10 16 14 13 12 9 11 11 8 8 11 9 8 9 11 8 7 14 14 16 17 18 18 19 20 21 22 23 23 24 24 24 24 25 25 25 25 25
5 5 5 5 6 5 6 6 6 6 7 7 6 6 6 7 6 7 7 7 8 7 7 7 5 6 7 8 8 8 8 9 8 8 8 8 8 8 8 8 9 9 8 10 14 17 12 8 11 13 11 11 13 7 12 11 8 7 8 8 8 7 7 7 7 13 15 17 18 19 20 20 21 22 22 23 23 24 24 25 25 24 24 25 25
5 5 5 5 5 5 5 6 6 6 6 6 7 6 7 7 7 5 6 8 8 8 7 8 8 6 8 9 9 8 8 9 9 9 9 9 9 10 10 9 9 10 8 10 13 14 18 10 9 10 11 8 16 10 8 11 10 9 9 8 7 7 7 7 7 7 12 16 18 19 20 21 21 22 22 22 23 23 23 24 23 22 22 24 23
5 5 5 5 5 5 5 5 6 6 6 6 6 7 7 8 8 8 7 8 9 9 10 9 9 9 9 9 10 9 7 10 10 9 9 10 9 10 12 10 11 11 10 10 11 15 17 16 10 11 10 9 11 15 10 8 11 9 11 10 8 8 7 7 8 6 10 16 19 20 21 21 21 21 22 22 23 23 23 23 23 21 21 22 22
4 4 4 5 4 5 5 5 5 6 6 7 6 6 7 8 8 9 8 8 8 8 9 10 10 10 10 11 10 10 11 12 11 10 9 9 9 10 11 11 11 12 12 11 12 13 15 18 15 11 9 11 10 12 11 10 12 11 9 11 11 9 8 7 8 8 8 16 20 21 21 21 22 22 22 22 22 23 23 24 23 22 21 21 22
5 5 5 5 5 6 6 6 7 6 7 7 7 7 7 6 7 8 8 8 8 9 9 9 10 10 11 11 12 11 11 12 12 10 9 12 11 11 12 11 11 11 11 11 12 12 15 18 18 14 11 12 10 11 11 13 13 13 11 11 9 9 9 7 8 9 12 16 19 20 19 21 22 22 22 22 22 23 24 24 24 23 21 21 21
5 5 5 5 5 6 6 5 6 6 6 7 7 8 8 7 7 8 8 8 9 9 10 10 10 9 10 11 11 11 11 11 12 12 12 13 12 12 13 12 11 12 13 14 13 13 14 16 16 18 13 12 12 11 10 10 12 14 14 12 10 8 8 8 7 7 5 6 6 8 12 16 18 22 22 22 23 23 24 24 24 23 22 21 20
5 5 5 5 5 5 5 5 6 6 6 6 7 7 7 8 8 9 9 9 9 9 9 10 10 10 10 10 10 10 11 11 12 12 13 13 11 13 13 13 12 13 13 13 13 14 14 15 16 16 16 14 13 15 11 11 11 12 14 15 14 10 10 10 10 7 5 7 10 14 13 11 14 12 14 19 22 23 24 23 23 24 22 21 20
5 5 5 5 5 4 4 5 5 5 5 6 6 6 7 8 8 9 9 9 10 10 10 10 10 10 10 10 10 10 10 10 11 12 12 12 12 13 12 11 12 14 13 13 13 13 13 14 15 16 15 15 14 12 12 12 13 13 10 11 15 15 13 10 9 9 5 6 7 6 8 12 13 16 20 21 23 23 22 21 22 22 22 21 20
4 4 5 5 5 5 4 4 4 4 4 4 4 6 8 9 9 10 10 10 11 11 12 11 10 10 10 10 10 10 11 15 18 17 17 16 13 13 13 12 12 13 13 12 12 13 13 14 16 15 15 15 14 13 12 11 11 13 11 11 14 15 14 14 13 11 9 10 8 8 7 8 8 8 8 9 10 15 16 18 17 19 20 20 20
3 4 4 4 4 5 5 5 4 4 4 4 7 14 12 10 11 10 10 11 11 11 12 12 11 11 11 11 10 15 16 17 17 18 19 19 19 15 14 13 13 13 13 13 13 13 13 14 14 15 16 16 15 13 14 14 13 13 14 13 14 15 15 15 14 13 9 8 9 12 8 7 8 9 9 9 9 9 8 9 9 12 14 19 22
3 4 4 4 4 5 5 5 5 4 4 5 13 15 15 16 12 11 11 11 11 11 11 11 12 12 11 11 11 13 14 14 13 17 18 19 19 20 21 20 17 14 13 13 13 13 13 14 15 16 16 18 18 15 14 14 12 12 12 13 12 12 13 13 14 14 9 9 10 10 10 5 6 9 9 9 8 7 8 9 13 16 18 21 21
3 3 4 4 5 5 4 5 5 5 5 9 14 15 16 16 14 11 11 10 10 10 11 11 11 11 12 11 11 10 10 12 13 13 15 18 19 19 20 19 20 20 20 15 14 13 13 13 14 14 15 16 17 16 15 14 14 14 13 13 13 12 13 14 14 16 10 7 11 13 15 9 7 9 10 8 7 7 8 12 16 19 20 21 21
3 3 4 5 5 5 5 6 6 6 6 10 15 16 16 16 16 14 10 10 10 11 11 11 11 11 11 11 11 10 9 16 13 13 13 13 16 19 19 20 19 20 20 21 22 17 14 14 15 17 15 15 17 15 14 14 14 16 15 16 15 15 15 17 17 16 16 12 12 15 17 14 8 8 10 7 8 6 7 14 19 19 20 21 22
3 4 4 5 5 5 5 7 7 7 8 11 16 16 16 17 16 15 11 11 10 11 11 11 11 11 11 11 12 12 11 12 12 13 13 13 14 13 13 13 13 16 19 21 22 23 20 15 15 17 16 14 16 17 17 16 17 16 16 16 15 15 16 16 18 18 18 14 16 15 18 17 13 12 14 12 10 10 10 11 17 20 21 23 22
4 4 4 5 5 5 6 6 7 8 7 14 16 17 16 17 17 15 9 9 9 10 10 11 12 11 12 11 12 13 13 13 12 15 15 15 14 12 12 13 14 15 14 14 13 13 13 13 14 16 17 16 17 18 16 15 16 16 15 17 16 15 17 16 17 16 16 14 15 13 18 18 14 14 16 15 10 8 10 13 18 20 22 23 23
3 3 4 4 5 5 6 6 7 8 8 14 16 16 17 16 18 10 8 9 10 10 10 10 11 11 11 12 12 13 14 15 17 23 21 17 14 13 15 13 13 13 13 13 18 18 16 16 16 16 16 17 22 19 18 16 14 13 14 14 13 13 13 15 17 13 14 10 12 13 15 18 15 15 16 15 13 14 11 10 13 21 22 23 24
4 4 4 4 4 5 6 6 8 9 8 11 15 16 17 18 14 9 9 9 9 10 11 11 11 12 11 12 12 13 15 16 19 24 24 23 15 14 12 11 11 11 12 14 20 25 25 26 27 27 27 27 26 26 27 28 21 17 13 13 12 11 13 14 14 12 13 10 10 14 15 17 15 13 15 15 13 13 13 11 9 16 22 23 24
5 4 5 5 4 4 6 7 6 9 9 11 16 17 17 18 15 11 9 9 10 11 11 11 11 11 12 19 19 17 17 17 23 25 25 21 14 13 13 14 14 14 14 13 11 12 21 25 27 28 29 28 29 29 28 26 24 19 12 15 11 10 14 14 15 12 12 11 10 9 10 12 13 12 12 13 15 11 13 13 11 12 17 19 25
5 4 4 5 5 4 5 7 11 12 10 11 15 17 18 17 14 10 9 9 9 11 11 11 11 11 13 16 22 21 19 20 27 26 27 23 15 14 13 13 14 14 13 15 16 15 11 11 12 14 15 18 16 15 15 23 22 18 13 12 10 11 15 14 14 14 15 13 9 9 12 12 14 9 11 10 13 13 12 11 11 9 9 8 10
Wind_Direction
184 166 143 126 104 117 121 137 114 111 109 67 72 76 89 103 96 103 86 85 85 71 51 63 42 42 30 14 11 2 357 347 346 338 337 334 335 336 338 343 339 335 331 327 321 320 316 313 305 279 274 181 180 169 171 257 266 274 271 245 241 290 300 85 64 359 0 334 325 324 337 337 334 321 320 309 303 336 339 347 325 4 31 10 344
177 152 158 155 147 133 139 180 147 154 160 148 144 141 133 144 116 96 97 90 88 66 38 47 49 24 20 16 20 353 338 342 327 330 322 321 323 322 335 342 341 337 335 333 326 320 316 311 315 314 316 302 254 262 220 210 253 275 304 296 291 259 252 134 122 81 355 327 320 312 317 317 314 315 305 284 273 271 278 313 319 309 312 359 352
136 138 180 162 151 128 129 184 165 171 175 129 124 132 126 118 104 103 118 139 104 70 33 29 33 48 21 359 359 313 308 266 252 288 310 310 309 316 318 335 339 335 334 332 330 327 326 323 320 322 324 322 328 265 262 209 215 254 254 283 281 307 78 135 173 147 107 336 307 301 303 300 291 293 299 286 289 300 312 298 292 312 308 328 339
83 135 319 242 152 142 151 180 153 111 58 79 93 100 109 94 98 109 116 127 125 109 73 4 351 22 343 344 310 301 302 298 275 242 242 261 280 293 311 316 319 326 330 331 330 333 329 328 326 328 325 325 328 322 262 278 218 230 279 285 292 294 282 193 205 155 131 265 287 283 294 289 284 272 278 285 289 293 282 280 296 304 309 299 320
54 49 80 48 21 6 18 20 64 91 99 107 118 115 112 114 94 119 118 126 121 123 136 159 289 312 306 327 307 300 314 297 297 287 263 246 244 259 290 304 304 313 323 331 335 333 330 328 331 327 326 324 326 329 307 272 271 266 270 264 266 282 275 243 173 181 176 197 233 282 275 269 270 274 270 283 290 282 278 297 290 295 297 290 291
56 55 48 57 52 50 39 42 48 56 55 52 60 51 87 100 94 140 120 92 51 32 335 309 306 290 280 296 277 279 287 271 261 269 272 263 260 268 268 268 294 301 314 321 332 330 330 329 326 328 327 326 327 327 327 304 284 273 266 283 275 255 269 273 274 218 189 233 263 279 280 280 272 265 264 267 274 275 280 263 264 289 296 289 292
53 68 60 62 66 70 37 49 54 61 57 35 49 43 37 42 22 354 13 19 12 12 357 339 329 325 324 316 297 295 261 265 261 259 261 278 281 287 279 264 249 275 281 297 313 320 328 327 327 326 326 332 333 329 323 320 296 275 275 270 279 270 259 275 268 274 256 236 225 235 270 257 260 255 255 259 268 275 271 276 273 270 275 281 279
45 58 75 67 73 75 64 70 75 79 76 69 71 67 65 72 62 32 0 1 358 2 15 347 335 322 319 307 299 290 288 277 275 269 256 262 252 245 244 256 255 246 254 276 294 310 318 325 325 324 330 337 334 326 322 318 311 291 285 281 274 272 256 264 273 274 284 296 199 210 238 259 260 266 259 253 259 270 272 272 273 273 273 273 273
43 42 57 55 52 59 48 52 56 65 71 71 70 90 103 116 131 130 126 195 341 316 328 1 330 313 307 306 301 300 289 288 275 272 264 255 264 248 243 242 246 253 252 277 269 281 303 311 322 328 336 337 331 327 323 322 318 304 283 286 285 276 267 250 265 272 280 286 280 223 233 252 258 260 261 262 259 259 269 271 270 272 274 271 270
44 42 57 60 57 54 49 44 54 60 59 66 70 36 45 32 64 30 103 122 172 218 258 240 212 280 299 305 305 296 283 279 276 277 273 286 279 281 278 283 272 274 292 300 305 299 303 305 321 324 330 328 325 323 322 322 322 326 329 309 283 281 279 263 266 275 279 278 279 262 233 247 255 257 257 257 259 263 266 266 272 275 270 268 265
40 37 46 45 50 44 43 31 41 51 58 35 44 44 37 26 52 66 31 351 337 319 310 300 297 283 277 283 282 270 275 279 284 282 306 300 292 280 290 288 311 322 325 322 307 313 325 323 319 315 306 317 317 317 317 315 322 329 321 314 311 287 276 271 264 264 268 275 275 271 262 252 259 252 257 265 267 268 265 267 273 270 269 267 264
27 25 40 40 42 36 37 30 33 44 47 42 34 38 25 39 40 20 3 1 19 340 307 303 291 284 291 291 260 277 271 269 284 320 304 283 279 287 304 323 299 313 320 316 320 325 318 308 291 292 298 296 303 308 310 309 320 318 310 310 306 294 278 281 278 271 269 270 265 258 255 262 272 265 251 250 259 266 263 263 268 266 263 259 259
31 32 34 44 46 43 43 39 43 51 57 57 49 44 32 34 32 29 6 351 25 1 323 317 325 323 323 278 295 245 264 315 320 295 276 272 284 321 317 295 292 322 335 327 320 314 296 286 284 282 276 280 280 281 292 298 304 301 300 301 301 299 280 274 274 273 270 266 267 268 270 258 262 270 263 261 263 251 257 265 263 262 258 256 256
43 44 46 45 45 44 41 37 32 41 49 43 39 37 26 27 13 17 53 11 3 356 342 312 26 360 326 326 282 297 293 65 343 10 308 331 339 283 273 273 313 329 301 293 282 273 273 280 280 279 279 283 284 289 289 284 277 287 294 293 293 295 295 290 286 276 267 264 265 271 276 264 255 249 252 256 259 240 235 248 260 262 258 255 254
36 39 42 37 41 44 39 38 38 31 40 40 36 36 28 27 23 24 356 46 353 24 359 13 342 315 255 291 349 335 2 42 17 319 324 6 313 311 309 303 310 306 302 291 283 279 273 280 280 279 285 284 286 287 283 282 281 289 285 288 287 287 286 287 289 293 295 278 262 262 268 275 262 250 251 258 261 235 235 239 241 252 258 255 253
36 36 41 40 38 40 38 38 38 34 38 41 33 30 24 22 20 25 23 20 12 12 41 12 16 344 354 358 319 358 318 61 348 309 333 309 333 337 27 327 322 300 292 287 291 288 288 286 279 275 275 276 278 277 275 273 283 274 270 274 280 278 278 276 278 283 284 286 278 274 266 267 269 256 247 249 258 239 241 242 234 232 246 254 251
39 39 41 42 39 39 41 39 41 34 38 43 40 33 30 30 20 29 33 27 15 1 11 14 8 39 354 335 331 319 19 335 337 313 27 4 310 358 347 344 334 334 322 306 305 293 296 285 275 278 270 268 263 260 261 266 271 271 275 267 264 269 270 274 274 272 272 273 272 274 271 269 273 279 246 238 240 215 222 223 228 233 232 245 250
44 42 41 41 42 38 39 42 39 36 36 45 38 31 27 24 19 23 30 25 22 29 11 359 15 41 44 92 164 323 328 335 346 318 318 234 299 301 345 341 3 342 332 313 312 307 292 286 280 280 275 266 263 264 257 258 255 258 257 265 263 264 261 263 267 269 269 267 267 267 269 271 275 277 277 266 254 219 221 222 227 232 232 239 247
46 45 44 44 46 42 42 43 42 39 31 38 38 31 27 26 11 28 27 18 22 42 28 356 357 42 12 9 18 33 343 329 336 323 321 340 87 335 331 337 1 347 318 302 301 301 291 277 280 272 274 269 269 267 266 261 254 252 257 261 264 263 263 262 260 263 267 270 270 268 267 268 271 273 280 281 258 225 222 224 226 236 244 242 245
44 43 42 42 42 45 41 43 45 39 34 39 36 25 29 29 32 30 32 33 25 33 25 22 26 359 353 9 4 21 90 204 214 293 294 305 314 308 188 17 338 315 298 298 296 289 291 287 279 276 268 266 262 261 262 264 262 261 259 257 261 263 263 263 262 259 259 263 266 268 267 267 267 272 273 275 259 231 229 229 240 246 253 242 244
45 44 42 42 40 43 40 43 43 39 36 36 33 30 31 29 22 25 25 28 30 20 30 22 13 16 350 5 352 4 336 83 93 123 313 311 297 320 320 316 278 239 298 294 289 280 273 280 279 277 275 271 263 257 262 265 264 259 261 263 264 265 266 265 264 261 258 257 260 263 266 266 268 267 267 270 263 243 237 241 238 240 242 239 244
41 39 39 37 38 35 37 39 38 38 38 36 28 27 26 30 30 30 26 31 28 29 35 19 19 14 19 356 8 348 353 27 59 357 294 207 287 311 313 324 325 328 331 307 302 294 283 279 278 268 271 270 268 262 260 258 260 263 261 262 268 270 272 271 269 267 265 263 260 259 261 264 267 267 267 267 265 256 248 242 241 234 221 227 235
46 44 43 37 39 38 36 36 37 36 35 30 28 23 19 18 19 27 32 28 20 17 24 31 22 20 15 15 9 6 356 339 331 335 326 307 306 299 307 300 293 307 320 315 303 289 285 286 280 279 276 276 274 271 258 264 268 262 262 267 268 268 270 271 271 270 267 266 265 264 262 263 263 264 267 267 267 264 254 249 247 234 217 220 226
47 44 38 34 38 39 36 35 35 32 34 31 29 25 20 20 25 25 25 25 21 19 18 19 13 11 16 7 3 356 350 336 326 317 315 308 301 295 302 310 301 248 300 303 298 284 278 266 268 279 279 283 281 278 280 274 269 267 267 268 266 269 271 273 273 272 270 267 267 264 263 262 262 262 262 265 268 266 264 260 253 251 230 224 228
37 39 30 26 30 34 31 29 27 26 23 26 21 19 18 20 21 19 21 22 16 9 18 14 8 12 354 348 346 351 347 332 314 311 309 297 293 298 294 306 296 303 305 303 306 290 272 269 263 257 276 278 279 280 283 281 279 286 281 280 275 276 273 273 274 276 276 276 275 273 270 266 264 263 262 263 263 265 265 262 261 255 245 237 235
48 45 32 28 37 38 37 36 33 26 25 22 19 17 16 20 15 16 12 13 8 8 5 0 0 3 354 347 351 344 333 331 314 311 315 320 312 308 308 301 288 295 301 306 177 321 279 253 268 252 247 263 270 280 283 286 291 289 294 297 292 281 278 276 275 273 274 273 272 273 273 271 268 267 265 265 265 265 264 264 261 260 252 245 240
54 47 35 39 38 35 35 36 29 25 20 21 17 15 15 14 18 15 6 8 6 1 355 357 350 349 348 346 331 330 334 333 331 324 322 307 299 304 310 313 309 289 304 294 295 231 264 247 255 258 257 250 255 264 270 276 287 292 306 302 292 284 275 277 278 277 277 276 276 275 273 272 271 269 266 264 265 266 266 266 266 262 259 254 248
60 50 36 40 35 30 31 32 25 23 20 17 13 12 4 6 7 8 4 355 354 352 348 339 336 335 331 326 328 327 327 323 322 316 309 302 296 291 291 288 298 306 312 305 299 296 197 263 256 230 241 249 252 246 271 282 281 293 294 286 287 290 276 279 279 280 278 276 275 273 272 271 269 267 265 263 263 264 264 264 265 267 273 274 272
60 56 44 37 35 33 26 26 21 17 15 12 6 4 358 2 6 356 356 354 352 351 346 343 338 330 331 332 327 318 318 318 315 315 312 305 296 286 277 280 286 285 298 297 298 307 309 78 315 261 224 238 262 296 294 263 277 277 278 279 279 280 275 280 281 281 279 278 275 272 270 269 269 269 267 264 262 261 262 261 260 259 259 260 263
56 52 47 40 34 26 27 18 17 9 10 2 1 355 354 358 354 354 342 337 338 340 341 337 332 330 326 326 325 319 315 314 312 309 307 305 299 294 286 272 261 268 274 280 282 283 295 294 251 282 237 303 289 280 287 286 287 281 267 273 272 273 275 275 279 281 280 278 276 274 272 270 268 267 267 265 263 261 261 260 260 257 256 256 256
47 42 38 37 32 25 26 19 17 14 10 5 359 360 355 352 349 347 342 343 342 336 334 333 325 324 321 317 316 310 312 309 307 307 301 297 296 293 284 271 257 251 265 270 280 265 238 293 282 254 299 297 297 290 281 265 277 282 276 268 267 272 274 276 275 277 278 278 276 273 271 269 267 265 266 266 265 263 260 259 259 257 254 253 255
39 35 34 30 22 19 16 15 11 10 9 6 360 359 350 356 347 344 342 340 333 329 324 324 318 317 312 310 308 307 307 302 299 300 299 295 290 290 286 281 271 256 254 265 263 274 252 261 284 289 290 294 292 295 290 275 266 263 271 270 270 270 269 264 273 274 273 274 272 271 268 267 265 264 263 262 263 264 263 260 258 257 255 252 251
34 30 30 24 18 14 8 11 9 1 2 358 358 356 352 351 350 342 340 341 335 328 325 318 314 308 305 299 298 296 293 292 294 296 294 290 289 283 279 277 274 267 261 264 270 279 275 227 254 278 288 298 289 271 287 291 283 269 257 263 270 266 258 260 264 268 268 269 270 268 267 264 264 263 261 261 260 260 262 262 260 257 254 252 250
30 26 24 18 14 9 9 7 5 0 359 357 355 354 349 347 343 343 337 336 329 322 321 316 318 316 310 304 302 301 296 291 293 292 294 295 290 287 282 279 275 276 262 271 275 278 285 278 261 261 273 275 286 281 271 290 290 288 278 269 260 252 263 261 256 247 253 265 265 264 263 263 263 263 263 261 261 261 261 262 261 258 255 252 249
23 28 19 17 11 7 11 6 2 2 358 356 354 352 347 344 339 336 336 333 329 327 325 321 322 319 315 312 309 312 309 303 297 293 291 288 286 283 283 281 280 278 275 266 274 279 282 283 275 275 274 271 268 288 287 274 281 282 283 276 270 265 251 254 258 253 247 256 262 263 264 264 264 262 261 261 259 260 259 260 261 261 258 251 248
25 23 22 14 13 8 9 7 3 1 358 353 350 348 341 337 332 329 327 324 318 314 312 312 316 316 313 312 310 317 315 308 304 305 301 295 295 292 287 284 281 280 279 274 265 270 280 285 282 276 274 278 271 277 285 282 280 277 264 275 272 265 260 246 247 260 248 253 258 262 264 265 264 262 261 260 259 257 258 258 258 258 257 254 247
19 14 12 12 11 9 6 360 358 358 356 348 343 338 334 329 323 319 316 312 308 305 303 303 304 305 304 302 305 310 309 304 302 304 305 303 300 296 290 288 285 283 281 277 274 271 276 278 284 281 278 272 270 269 274 283 284 279 273 264 264 267 263 245 251 250 256 256 260 260 261 262 263 264 263 261 259 257 256 256 256 256 256 255 250
15 12 8 7 3 2 356 356 353 351 348 345 337 330 326 324 316 311 306 304 301 300 299 299 300 301 300 299 301 302 300 299 299 300 300 298 297 292 290 289 289 287 284 281 277 276 273 275 279 287 281 278 279 267 260 263 276 285 285 281 274 256 261 266 236 244 230 239 247 250 254 257 259 260 261 261 260 258 257 255 254 253 253 254 253
13 3 3 2 355 354 346 354 348 344 340 336 326 321 318 316 312 307 306 303 300 298 296 297 296 293 292 293 294 295 293 293 294 296 299 298 293 291 291 293 292 291 288 285 284 282 279 280 281 279 284 280 275 279 271 268 266 270 284 293 291 283 272 263 272 254 217 238 239 250 256 254 254 252 254 256 258 258 257 257 255 253 252 251 251
9 0 355 350 342 346 344 344 336 332 329 324 319 314 310 310 310 309 308 308 306 304 302 302 303 301 299 297 295 294 294 294 296 298 300 299 298 294 294 296 295 292 290 289 288 285 283 282 280 285 283 286 285 274 275 275 274 269 264 276 285 290 287 280 269 278 262 235 249 243 245 257 258 256 257 259 258 257 256 256 254 254 254 253 252
358 347 345 336 332 338 335 332 330 326 319 307 311 313 315 316 315 312 310 306 306 306 306 306 305 304 304 302 300 299 298 297 297 297 295 295 296 295 294 294 294 292 290 287 284 284 282 280 281 280 282 284 283 288 288 281 274 275 279 278 280 282 287 288 283 269 262 271 262 249 236 236 252 247 242 246 245 250 254 251 255 254 252 253 253
337 336 330 325 326 329 326 320 322 315 309 297 295 306 310 311 312 308 305 302 302 302 304 304 303 304 303 302 299 299 301 301 299 296 295 294 292 291 294 299 298 297 294 293 290 289 288 285 282 286 285 282 285 287 289 287 285 281 278 272 271 276 281 280 281 277 277 258 264 266 243 220 237 249 244 247 245 239 245 247 240 245 246 245 246
325 327 321 320 329 321 318 316 316 312 298 288 300 308 310 309 307 303 301 300 299 298 298 299 300 302 302 302 300 302 302 300 296 294 294 294 294 292 291 290 290 290 292 289 286 285 284 281 283 284 283 286 288 293 293 295 293 291 283 280 275 275 276 285 286 288 272 272 267 263 262 216 212 242 245 244 247 232 229 239 237 240 242 245 245
324 317 314 317 318 317 312 310 303 298 295 294 303 307 307 307 305 302 299 297 297 294 294 296 297 299 301 302 300 300 299 296 297 297 296 295 295 296 296 297 294 290 287 287 292 292 287 286 283 280 283 283 290 291 291 296 300 299 300 303 299 294 287 282 279 279 287 288 294 289 283 271 234 235 246 239 239 229 226 236 235 239 240 242 244
312 311 315 316 307 309 306 304 301 296 288 295 301 303 303 304 305 305 297 294 293 292 294 295 296 297 298 299 299 295 294 297 298 296 296 296 297 297 298 299 301 301 300 296 291 288 290 288 288 288 286 295 295 292 297 300 301 295 296 288 285 284 283 282 280 285 283 293 290 285 283 282 274 241 251 233 236 230 232 235 239 238 239 241 242
307 304 301 299 302 302 303 302 297 294 291 292 300 303 305 305 305 304 296 295 293 292 292 292 291 291 292 294 296 296 295 297 295 295 296 295 293 294 294 293 290 288 289 288 286 285 283 281 282 283 287 286 285 290 293 293 288 285 284 282 278 274 270 266 269 268 273 273 273 279 277 274 273 272 265 264 252 252 247 234 232 236 237 240 240
305 301 301 298 291 290 293 293 291 290 284 297 303 305 305 306 306 307 302 297 292 286 286 285 287 288 289 289 290 291 293 292 290 288 291 292 291 284 276 271 272 275 273 271 270 271 272 272 276 279 283 283 282 284 283 282 280 279 279 280 282 281 280 277 274 265 265 262 263 263 270 275 270 271 271 272 266 258 254 250 235 234 236 238 239
273 280 281 280 286 287 287 289 289 287 285 300 304 305 307 309 311 311 302 292 288 285 284 284 286 287 287 286 286 288 286 285 280 285 290 291 288 278 274 268 268 268 268 264 272 278 280 281 281 281 283 284 284 285 286 289 289 288 286 288 288 283 278 277 273 270 267 262 250 251 260 267 263 259 264 264 265 263 254 252 238 237 236 236 237
294 287 279 280 283 286 286 281 288 287 284 297 304 308 311 312 314 303 297 292 288 287 283 284 285 285 286 284 284 280 280 279 275 286 291 292 286 279 280 280 276 273 275 278 274 274 279 279 279 281 283 285 287 289 292 294 295 294 294 292 292 301 295 289 287 288 283 281 253 232 243 254 254 254 263 265 264 264 259 251 238 231 236 237 236
291 280 286 286 273 271 279 282 282 290 287 302 310 311 312 311 310 305 299 291 286 285 284 283 285 285 284 282 279 279 279 281 282 286 289 290 287 285 280 274 271 267 269 268 262 259 263 272 275 278 278 280 282 285 288 290 291 290 285 282 295 305 291 289 290 291 292 286 284 294 278 265 276 265 268 267 268 256 259 256 245 247 237 239 239
273 284 282 285 280 271 263 271 286 290 289 299 309 309 309 309 309 301 295 289 287 287 290 288 285 285 282 276 275 276 281 286 290 294 294 292 288 280 273 267 270 267 269 272 276 276 265 260 258 262 265 270 272 270 269 273 278 282 285 289 295 286 284 285 285 291 287 272 272 267 267 270 270 260 259 268 266 266 256 250 244 240 238 234 238